Weather History for KDMW - October, 2013

Change the Weather History Date:

Friday, October 25, 2013

  Actual Average (KTHV) Record (KTHV)
Temperature  
Mean Temperature 43 °F -  
Max Temperature 51 °F 0 °F 75 °F (2010)
Min Temperature 35 °F - 30 °F (1998)
Degree Days  
Heating Degree Days 22    
Moisture  
Dew Point 30 °F    
Average Humidity 64    
Maximum Humidity 81    
Minimum Humidity 35    
Precipitation  
Precipitation 0.00 in - - ()
Sea Level Pressure  
Sea Level Pressure 30.22 in    
Wind  
Wind Speed 8 mph (West)    
Max Wind Speed 15 mph    
Max Gust Speed 23 mph    
Visibility 10 miles    
Events      
Averages and records for this station are not official NWS values.
T = Trace of Precipitation, MM = Missing Value Source: NWS Daily Summary

Daily Weather History Graph

Daily Weather History Graph

Search for Another Location

Airport or City:

Trip Planner

Search our weather history database for the weather conditions in past years. The results will help you decide how hot, cold, wet, or windy it might be!

Date:

Astronomy

Oct. 25, 2013 Rise Set
Actual Time 7:28 AM EDT 6:14 PM EDT
Civil Twilight 7:01 AM EDT 6:42 PM EDT
Nautical Twilight 6:29 AM EDT 7:13 PM EDT
Astronomical Twilight 5:58 AM EDT 7:44 PM EDT
Moon 11:32 PM EDT (10/25) 1:07 PM EDT (10/25)
Length of Visible Light 11h 40m
Length of Day
10h 45m
Waning Gibbous, 62% of the Moon is Illuminated
Oct 25
Waning Gibbous
Oct 26
Last Quarter
Nov 3
New
Nov 10
First Quarter
Nov 17
Full

Hourly Weather History & Observations

Time (EDT) Temp. Windchill Dew Point Humidity Pressure Visibility Wind Dir Wind Speed Gust Speed Precip Events Conditions
12:10 AM 37.4 °F 34.9 °F 30.2 °F 75% 30.12 in 10.0 mi SW 3.5 mph - N/A   Clear
12:30 AM 37.4 °F 33.8 °F 30.2 °F 75% 30.12 in 10.0 mi West 4.6 mph - N/A   Clear
12:50 AM 35.6 °F 30.7 °F 30.2 °F 81% 30.12 in 10.0 mi West 5.8 mph - N/A   Clear
1:05 AM 37.4 °F 33.8 °F 30.2 °F 75% 30.12 in 10.0 mi WSW 4.6 mph - N/A   Clear
1:30 AM 35.6 °F 28.6 °F 30.2 °F 81% 30.12 in 10.0 mi West 9.2 mph - N/A   Scattered Clouds
1:50 AM 35.6 °F 29.9 °F 30.2 °F 81% 30.13 in 10.0 mi West 6.9 mph - N/A   Scattered Clouds
2:10 AM 35.6 °F 28.6 °F 30.2 °F 81% 30.13 in 10.0 mi West 9.2 mph - N/A   Scattered Clouds
2:30 AM 35.6 °F 28.6 °F 30.2 °F 81% 30.12 in 10.0 mi West 9.2 mph - N/A   Scattered Clouds
2:50 AM 35.6 °F 29.9 °F 30.2 °F 81% 30.13 in 10.0 mi West 6.9 mph - N/A   Scattered Clouds
3:10 AM 35.6 °F 29.2 °F 30.2 °F 81% 30.13 in 10.0 mi West 8.1 mph - N/A   Scattered Clouds
3:30 AM 37.4 °F 31.4 °F 30.2 °F 75% 30.13 in 10.0 mi West 8.1 mph - N/A   Scattered Clouds
3:50 AM 37.4 °F 31.4 °F 30.2 °F 75% 30.13 in 10.0 mi West 8.1 mph - N/A   Scattered Clouds
4:10 AM 37.4 °F 31.4 °F 30.2 °F 75% 30.13 in 10.0 mi West 8.1 mph - N/A   Scattered Clouds
4:30 AM 37.4 °F 32.8 °F 30.2 °F 75% 30.14 in 10.0 mi West 5.8 mph - N/A   Scattered Clouds
4:50 AM 37.4 °F 31.4 °F 30.2 °F 75% 30.14 in 10.0 mi West 8.1 mph - N/A   Scattered Clouds
5:10 AM 37.4 °F 31.4 °F 30.2 °F 75% 30.14 in 10.0 mi West 8.1 mph - N/A   Clear
5:30 AM 37.4 °F 32.1 °F 30.2 °F 75% 30.15 in 10.0 mi West 6.9 mph - N/A   Scattered Clouds
5:50 AM 37.4 °F 31.4 °F 30.2 °F 75% 30.15 in 10.0 mi West 8.1 mph - N/A   Mostly Cloudy
6:10 AM 35.6 °F 31.7 °F 30.2 °F 81% 30.16 in 10.0 mi West 4.6 mph - N/A   Scattered Clouds
6:30 AM 35.6 °F 29.9 °F 30.2 °F 81% 30.17 in 10.0 mi West 6.9 mph - N/A   Clear
6:55 AM 35.6 °F 30.7 °F 30.2 °F 81% 30.18 in 10.0 mi West 5.8 mph - N/A   Scattered Clouds
7:15 AM 35.6 °F 29.2 °F 30.2 °F 81% 30.18 in 10.0 mi West 8.1 mph - N/A   Scattered Clouds
7:35 AM 35.6 °F 29.2 °F 30.2 °F 81% 30.19 in 10.0 mi West 8.1 mph - N/A   Scattered Clouds
7:55 AM 37.4 °F 31.4 °F 30.2 °F 75% 30.20 in 10.0 mi West 8.1 mph - N/A   Scattered Clouds
8:15 AM 37.4 °F 32.1 °F 30.2 °F 75% 30.21 in 10.0 mi WSW 6.9 mph - N/A   Scattered Clouds
8:35 AM 37.4 °F 30.8 °F 30.2 °F 75% 30.22 in 10.0 mi West 9.2 mph - N/A   Scattered Clouds
8:55 AM 39.2 °F 33.6 °F 30.2 °F 70% 30.22 in 10.0 mi West 8.1 mph - N/A   Scattered Clouds
9:15 AM 39.2 °F 33.6 °F 30.2 °F 70% 30.23 in 10.0 mi West 8.1 mph - N/A   Scattered Clouds
9:35 AM 41.0 °F 34.7 °F 32.0 °F 70% 30.24 in 10.0 mi WNW 10.4 mph - N/A   Clear
9:55 AM 42.8 °F 36.6 °F 32.0 °F 66% 30.24 in 10.0 mi WNW 11.5 mph 17.3 mph N/A   Scattered Clouds
10:15 AM 42.8 °F 37.0 °F 32.0 °F 66% 30.24 in 10.0 mi WNW 10.4 mph 16.1 mph N/A   Clear
10:35 AM 44.6 °F 37.8 °F 33.8 °F 66% 30.24 in 10.0 mi West 15.0 mph 20.7 mph N/A   Scattered Clouds
10:55 AM 42.8 °F 36.2 °F 32.0 °F 66% 30.25 in 10.0 mi WNW 12.7 mph 18.4 mph N/A   Scattered Clouds
11:15 AM 44.6 °F 37.8 °F 33.8 °F 66% 30.25 in 10.0 mi WNW 15.0 mph 20.7 mph N/A   Scattered Clouds
11:35 AM 44.6 °F 38.4 °F 32.0 °F 61% 30.25 in 10.0 mi WNW 12.7 mph 17.3 mph N/A   Clear
11:55 AM 46.4 °F 40.7 °F 33.8 °F 62% 30.25 in 10.0 mi WNW 12.7 mph 20.7 mph N/A   Scattered Clouds
12:15 PM 46.4 °F 41.1 °F 33.8 °F 62% 30.25 in 10.0 mi WNW 11.5 mph 17.3 mph N/A   Scattered Clouds
12:35 PM 46.4 °F 42.4 °F 32.0 °F 57% 30.25 in 10.0 mi NW 8.1 mph - N/A   Mostly Cloudy
12:55 PM 48.2 °F - 33.8 °F 58% 30.24 in 10.0 mi WNW 6.9 mph 17.3 mph N/A   Mostly Cloudy
1:15 PM 48.2 °F - 33.8 °F 58% 30.24 in 10.0 mi WNW 9.2 mph 18.4 mph N/A   Mostly Cloudy
1:35 PM 50.0 °F - 32.0 °F 50% 30.23 in 10.0 mi West 13.8 mph 23.0 mph N/A   Scattered Clouds
1:55 PM 51.8 °F - 30.2 °F 44% 30.23 in 10.0 mi WNW 12.7 mph 23.0 mph N/A   Scattered Clouds
2:15 PM 51.8 °F - 30.2 °F 44% 30.23 in 10.0 mi NW 11.5 mph 20.7 mph N/A   Mostly Cloudy
2:35 PM 51.8 °F - 30.2 °F 44% 30.23 in 10.0 mi WNW 12.7 mph 21.9 mph N/A   Scattered Clouds
2:55 PM 51.8 °F - 28.4 °F 41% 30.22 in 10.0 mi NW 10.4 mph 19.6 mph N/A   Scattered Clouds
3:15 PM 51.8 °F - 26.6 °F 38% 30.22 in 10.0 mi WNW 13.8 mph 20.7 mph N/A   Scattered Clouds
3:35 PM 51.8 °F - 24.8 °F 35% 30.22 in 10.0 mi NW 12.7 mph 19.6 mph N/A   Scattered Clouds
3:55 PM 51.8 °F - 24.8 °F 35% 30.23 in 10.0 mi NW 12.7 mph 17.3 mph N/A   Clear
4:15 PM 51.8 °F - 26.6 °F 38% 30.23 in 10.0 mi WNW 13.8 mph 19.6 mph N/A   Scattered Clouds
4:35 PM 51.8 °F - 26.6 °F 38% 30.23 in 10.0 mi WNW 9.2 mph - N/A   Scattered Clouds
4:55 PM 51.8 °F - 28.4 °F 41% 30.23 in 10.0 mi West 11.5 mph 16.1 mph N/A   Mostly Cloudy
5:15 PM 51.8 °F - 26.6 °F 38% 30.24 in 10.0 mi WNW 11.5 mph 20.7 mph N/A   Scattered Clouds
5:35 PM 48.2 °F - 26.6 °F 43% 30.25 in 10.0 mi West 13.8 mph 19.6 mph N/A   Clear
5:55 PM 48.2 °F - 28.4 °F 46% 30.25 in 10.0 mi WNW 12.7 mph 21.9 mph N/A   Clear
6:15 PM 46.4 °F 40.7 °F 28.4 °F 50% 30.26 in 10.0 mi West 12.7 mph 19.6 mph N/A   Scattered Clouds
6:35 PM 46.4 °F 42.4 °F 28.4 °F 50% 30.27 in 10.0 mi West 8.1 mph - N/A   Scattered Clouds
6:55 PM 44.6 °F 40.2 °F 28.4 °F 53% 30.27 in 10.0 mi West 8.1 mph 16.1 mph N/A   Clear
7:15 PM 44.6 °F 40.2 °F 28.4 °F 53% 30.28 in 10.0 mi West 8.1 mph - N/A   Clear
7:35 PM 44.6 °F 41.4 °F 28.4 °F 53% 30.28 in 10.0 mi West 5.8 mph - N/A   Scattered Clouds
7:55 PM 42.8 °F 39.3 °F 28.4 °F 57% 30.29 in 10.0 mi West 5.8 mph - N/A   Scattered Clouds
8:15 PM 42.8 °F 40.1 °F 28.4 °F 57% 30.28 in 10.0 mi West 4.6 mph - N/A   Clear
8:35 PM 42.8 °F 38.6 °F 28.4 °F 57% 30.28 in 10.0 mi West 6.9 mph - N/A   Scattered Clouds
8:55 PM 42.8 °F 38.6 °F 28.4 °F 57% 30.29 in 10.0 mi West 6.9 mph - N/A   Scattered Clouds
9:15 PM 42.8 °F 38.6 °F 28.4 °F 57% 30.29 in 10.0 mi West 6.9 mph - N/A   Scattered Clouds
9:35 PM 42.8 °F 38.0 °F 28.4 °F 57% 30.29 in 10.0 mi West 8.1 mph - N/A   Scattered Clouds
9:55 PM 39.2 °F 33.6 °F 28.4 °F 65% 30.29 in 10.0 mi West 8.1 mph - N/A   Clear
10:15 PM 41.0 °F 35.2 °F 28.4 °F 61% 30.30 in 10.0 mi West 9.2 mph - N/A   Clear
10:35 PM 39.2 °F 34.2 °F 28.4 °F 65% 30.30 in 10.0 mi West 6.9 mph - N/A   Scattered Clouds
10:55 PM 39.2 °F 35.0 °F 28.4 °F 65% 30.30 in 10.0 mi WSW 5.8 mph - N/A   Scattered Clouds
11:15 PM 37.4 °F 32.8 °F 28.4 °F 70% 30.29 in 10.0 mi WSW 5.8 mph - N/A   Clear
11:35 PM 37.4 °F 33.8 °F 30.2 °F 75% 30.29 in 10.0 mi WSW 4.6 mph - N/A   Clear
11:55 PM 35.6 °F 30.7 °F 30.2 °F 81% 30.29 in 10.0 mi WSW 5.8 mph - N/A   Scattered Clouds